KUIPER-00028 (63741 NORAD) Tracking and Keplerian Element Data

This shows tracking and keplerian element data for the satellite.

Feedback or suggestion? Click here.




ElementValue
Catalog63741
NameKUIPER-00028
Epoch Orbit3625
Epoch Day353.99140926
Epoch Year2025
RAAN85.9673
Inclination51.9013
Eccentricity0.0003795
Argument of Perigee273.6108
Mean Anonmoly86.4421
Mean Motion14.79698819
Decay Rate1.305E-05
L11 63741U 25088T 25353.99140926 .00001305 00000+0 20126-3 0 9994
L22 63741 51.9013 85.9673 0003795 273.6108 86.4421 14.79698819 36254



Live tracking and technical data element details for KUIPER-00028 (NORAD 63741). KUIPER-00028 can be tracked NOW for your location showing map with azimuth and elevation plus other details from your city location.







IsCatalogInMostPopularTable: catalog: 63741, numindb: 5
Update: records affected: 1



GetName: 63741 KUIPER-00028

Hit Count: updated at: Tue, 21 Apr 2026 19:29:33 GMT